FW5647 Weather Reports


time (UTC)temp
C
wind
direction
speed
KPH
gust
KPH
rain 1hr
cm
rain 24hr
cm
rain mn
cm
humidity
%
barometer
mb
20260503193042 16 253 11.3 33.8 0.03 0.03 0.03 44 1010.1
20260503191535 16 262 16.1 33.8 0.03 0.03 0.03 42 1010.3
20260503190036 16 236 11.3 46.7 0.03 0.03 0.03 42 1010.6
20260503184535 16 259 16.1 37.0 0.03 0.03 0.03 43 1010.5
20260503183043 15 249 14.5 46.7 0.00 0.00 0.00 43 1010.8
20260503181532 16 43 17.7 38.6 0.00 0.00 0.00 41 1010.9
20260503180041 16 274 20.9 54.7 0.00 0.00 0.00 41 1011.1
20260503174537 15 233 11.3 33.8 0.00 0.00 0.00 46 1011.4
20260503173035 14 230 9.7 33.8 0.00 0.00 0.00 46 1011.6
20260503171536 14 279 11.3 35.4 0.00 0.00 0.00 47 1012.0
20260503081535 1 219 1.6 4.8 0.00 0.00 0.00 70 1014.5
20260503071536 0 0 0.0 3.2 0.00 0.00 0.00 74 1014.5
20260503054540 1 0 0.0 1.6 0.00 0.00 0.00 72 1015.3
20260503053036 1 0 0.0 1.6 0.00 0.00 0.00 73 1015.3
20260503051534 1 273 0.0 1.6 0.00 0.00 0.00 73 1015.3
20260503050032 1 0 0.0 3.2 0.00 0.00 0.00 72 1015.4
20260503044540 2 221 0.0 3.2 0.00 0.00 0.00 71 1015.5
20260503043033 1 0 0.0 1.6 0.00 0.00 0.00 73 1015.4
20260503041534 1 0 0.0 1.6 0.00 0.00 0.00 74 1015.6
20260503040038 1 0 0.0 1.6 0.00 0.00 0.00 74 1015.6
20260503034534 1 0 0.0 0.0 0.00 0.00 0.00 75 1015.7
20260503033046 1 0 0.0 0.0 0.00 0.00 0.00 73 1015.6
20260503031540 1 0 0.0 0.0 0.00 0.00 0.00 74 1015.7
20260503030039 1 0 0.0 0.0 0.00 0.00 0.00 73 1015.9
20260503024537 2 0 0.0 1.6 0.00 0.00 0.00 73 1015.9
20260503023041 2 0 0.0 0.0 0.00 0.00 0.00 70 1016.0
20260503021540 2 0 0.0 1.6 0.00 0.00 0.00 71 1016.0
20260503020040 2 0 0.0 1.6 0.00 0.00 0.00 70 1016.0
20260503014542 3 0 0.0 1.6 0.00 0.00 0.00 68 1015.9
20260503013047 3 0 0.0 1.6 0.00 0.00 0.00 66 1015.7
20260503011539 4 0 0.0 0.0 0.00 0.00 0.00 63 1015.7
20260503010047 5 0 0.0 0.0 0.00 0.00 0.00 62 1015.6
20260503004533 6 0 0.0 1.6 0.00 0.00 0.00 58 1015.5
20260503003038 6 262 0.0 1.6 0.00 0.00 0.00 56 1015.6
20260503001538 7 0 0.0 1.6 0.00 0.00 0.00 54 1015.4
20260503000037 7 259 1.6 8.0 0.00 0.00 0.00 51 1015.4
20260502234539 8 300 1.6 9.7 0.00 0.00 0.00 51 1015.6
20260502233043 7 238 4.8 11.3 0.00 0.00 0.00 50 1015.7
20260502231533 7 218 3.2 11.3 0.00 0.00 0.00 50 1015.7
20260502230040 7 311 4.8 16.1 0.00 0.00 0.00 49 1015.8
20260502224541 8 254 4.8 11.3 0.00 0.00 0.00 48 1015.9
20260502223038 8 252 3.2 9.7 0.00 0.00 0.00 49 1015.9
20260502221536 8 356 4.8 14.5 0.00 0.00 0.00 48 1015.6
20260502220035 7 335 8.0 19.3 0.00 0.00 0.00 48 1015.8
20260502214537 7 287 8.0 17.7 0.00 0.00 0.00 47 1015.9
20260502213032 8 258 8.0 14.5 0.00 0.00 0.00 47 1015.8
20260502211537 8 297 4.8 17.7 0.00 0.00 0.00 48 1015.9
20260502210047 7 318 8.0 17.7 0.00 0.00 0.00 47 1016.0
20260502204536 7 308 6.4 17.7 0.00 0.00 0.00 48 1016.0
20260502203036 7 314 8.0 14.5 0.00 0.00 0.00 46 1016.1
20260502201532 7 315 6.4 19.3 0.00 0.00 0.00 48 1016.3
20260502200042 7 232 9.7 16.1 0.00 0.00 0.00 48 1016.5
20260502194540 7 253 4.8 22.5 0.00 0.00 0.00 48 1016.6